Location: LDNL
(36.4545°S, 141.6685°E)
Time: 11:31:08
(UTC+10:00)

Oscar 11 - Pass Details

Date: 29 May 2022
Orbit: 613 x 622 km, 97.6° (Epoch: 29 June)

Event Time Altitude Azimuth Distance (km) Brightness Sun altitude
Rises 18:29:30 0° 185° (S) 2,928 10.4 -12.4°
Reaches altitude 10° 18:32:09 10° 201° (SSW) 2,011 9.7 -12.9°
Maximum altitude 18:35:23 21° 249° (WSW) 1,430 9.6 -13.5°
Drops below altitude 10° 18:38:35 10° 296° (WNW) 1,987 11.0 -14.2°
Sets 18:41:11 0° 313° (NW) 2,881 11.7 -14.7°
